Regional Weather Roundup
Issued by NWS

Home | Current Version | Previous Version | Graphics & Text | Print | Product List | Glossary On
Versions: 1 2 3 4 5 6 7 8 9 10 11 12 13 14 15 16 17 18 19 20 21 22 23 24 25 26 27 28 29 30 31 32 33 34 35 36 37 38 39 40 41 42 43 44 45 46 47 48 49 50
884
ASUS43 KLMK 240310
RWRKY
KENTUCKY REGIONAL WEATHER ROUNDUP
NATIONAL WEATHER SERVICE LOUISVILLE KY
1100 PM EDT MON MAY 23 2016

NOTE "FAIR" INDICATES FEW OR NO CLOUDS BELOW 12,000 FEET
WITH NO SIGNIFICANT WEATHER AND/OR OBSTRUCTIONS TO VISIBILITY.

KYZ001>023-026-027-061>063-070>075-240400-
WESTERN AND SOUTH CENTRAL KENTUCKY

CITY           SKY/WX    TMP DP  RH WIND       PRES   REMARKS
PADUCAH        MOCLDY    64  58  80 CALM      29.97R
HENDERSON      CLEAR     72  48  43 SE5       29.98R
OWENSBORO      PTCLDY    70  49  47 SE5       30.00R
HOPKINSVILLE   CLEAR     69  53  55 E2        29.99R
BOWLING GREEN  CLEAR     61  52  72 SE3       30.02R
GLASGOW        CLEAR     56  50  81 CALM      30.04R
$$

KYZ024-025-028>034-038-045-046-053-240400-
NORTH CENTRAL KENTUCKY

CITY           SKY/WX    TMP DP  RH WIND       PRES   REMARKS
LOUISVILLE/SDF CLEAR     69  49  48 S5        30.02R
LOUISVILLE/LOU CLEAR     69  49  48 E3        30.03R
FORT KNOX      CLEAR     57  49  73 CALM      30.02R
$$

KYZ035>037-039>044-047>052-055>060-089>105-240400-
NORTHEAST KENTUCKY

CITY           SKY/WX    TMP DP  RH WIND       PRES   REMARKS
LEXINGTON      CLEAR     60  53  77 CALM      30.05R
COVINGTON      CLEAR     61  50  67 S3        30.04R
FRANKFORT      PTCLDY    58  51  78 CALM      30.03R
$$

KYZ054-064>069-076>088-106>120-240400-
SOUTHEAST KENTUCKY

CITY           SKY/WX    TMP DP  RH WIND       PRES   REMARKS
JACKSON        CLEAR     65  48  54 CALM      30.07R
LONDON         CLEAR     59  51  75 CALM      30.06R
SOMERSET       CLEAR     55  52  88 CALM      30.06R
MIDDLESBORO    CLEAR     59  51  77 W3        30.08R
MONTICELLO     CLEAR     55  53  93 CALM      30.07R
$$





USA.gov is the U.S. government's official web portal to all federal, state and local government web resources and services.